Temperature
18 18 18 18 18 18 18 18 18 18 18 18 18 18 18 18 18 18 18 18 18 18 18 18 17 17 17 17 17 17 17 17 16 16 17 16 16 16 16 16 16 16 16
18 18 18 18 18 18 18 18 18 18 18 18 18 18 18 18 18 18 18 18 18 18 17 17 17 17 17 17 17 17 17 17 16 16 16 16 16 16 16 16 16 16 16
18 18 18 18 18 18 18 18 18 18 18 18 18 18 18 18 18 18 18 18 18 18 18 17 17 17 17 17 17 17 17 17 17 16 16 16 16 16 16 16 16 16 16
18 18 18 18 18 18 18 18 18 18 18 18 18 18 18 18 18 18 18 18 18 18 18 18 17 17 17 17 17 17 17 17 17 17 16 16 16 16 16 16 16 16 16
18 18 18 18 18 18 18 18 18 18 18 18 18 18 18 18 18 18 18 18 18 18 18 18 18 17 17 17 17 17 17 17 17 17 16 16 16 16 16 16 16 16 16
18 19 19 18 18 18 18 18 18 18 18 18 18 18 18 18 18 18 18 18 18 18 18 18 18 17 17 17 17 17 17 17 17 16 16 16 16 16 16 16 16 15 16
19 19 19 19 18 18 18 18 18 18 18 18 18 18 18 18 18 18 18 18 18 18 18 18 17 17 17 17 17 17 17 16 16 16 16 16 16 16 16 16 16 15 15
19 19 19 19 18 18 18 18 18 18 18 18 18 18 18 18 18 18 18 18 18 18 18 18 17 17 17 17 17 17 17 16 16 16 16 16 16 16 16 16 15 15 15
18 18 18 18 18 18 18 18 18 18 18 18 18 18 18 18 18 18 18 18 18 18 18 17 17 17 17 17 17 17 17 16 16 16 16 16 16 16 16 15 15 15 15
18 18 18 18 18 18 18 18 18 18 18 18 18 18 18 17 17 17 18 18 18 17 17 17 17 17 17 17 17 17 16 16 16 16 16 16 16 16 15 15 15 15 15
18 18 18 18 18 18 18 18 18 18 17 18 18 18 17 17 17 17 17 17 17 17 17 17 17 17 17 17 17 16 16 16 16 16 16 16 16 15 15 15 15 15 15
18 18 18 18 18 18 18 18 18 17 17 17 17 17 17 17 17 17 17 17 17 17 17 17 17 17 17 16 16 16 16 16 16 16 16 16 15 15 15 15 15 15 15
18 18 18 18 18 18 18 18 17 17 17 17 17 17 17 17 17 17 17 17 17 17 17 17 17 16 16 16 16 16 16 16 16 16 16 16 15 15 15 15 15 15 15
18 18 18 18 18 18 18 18 17 17 17 17 17 17 17 17 17 17 17 17 16 16 16 16 16 16 16 16 16 16 16 16 16 16 16 15 15 15 15 15 15 14 14
18 18 18 18 18 18 17 17 17 17 17 17 17 17 17 17 17 16 16 16 16 16 16 16 16 16 16 16 16 16 16 16 16 15 15 15 15 15 15 15 14 14 14
18 18 18 18 18 17 17 17 17 17 17 17 17 17 17 16 16 16 16 16 16 15 15 16 16 16 16 16 16 16 16 15 15 15 15 15 15 15 15 14 14 14 14
18 18 18 18 17 17 17 17 17 17 17 16 16 16 16 16 16 16 16 15 15 15 15 15 15 15 15 15 15 15 15 15 15 15 15 15 15 15 15 14 14 14 14
18 18 17 17 17 17 17 17 16 16 16 16 16 16 16 16 16 16 15 15 15 15 15 15 15 15 15 15 15 15 15 15 14 15 15 14 14 14 14 14 14 14 14
17 17 17 17 17 17 16 16 16 16 16 16 16 16 15 15 15 15 15 15 15 15 14 14 14 14 14 14 14 14 14 14 14 14 14 14 14 14 14 14 14 14 14
17 17 17 17 17 16 16 16 16 16 16 16 15 15 15 15 15 15 15 15 14 14 14 14 14 14 14 14 14 14 14 14 14 14 14 14 14 14 14 14 14 14 14
17 17 16 16 16 16 16 16 16 15 15 15 15 15 15 14 14 14 14 14 14 14 14 14 13 14 14 14 13 13 13 13 13 13 13 13 13 13 13 13 13 13 13
17 16 16 16 16 16 16 15 15 15 15 15 15 14 14 14 14 14 14 14 14 13 13 13 13 13 13 13 13 13 13 13 13 13 13 13 13 13 13 13 13 13 13
16 16 16 16 16 16 15 15 15 15 14 14 14 14 14 14 14 14 14 14 13 13 13 13 13 13 13 13 13 13 13 13 13 13 13 13 13 13 13 13 13 13 13
16 16 16 15 15 15 15 15 15 14 14 14 14 14 14 14 14 14 14 13 13 13 13 13 13 13 13 13 13 13 12 12 13 12 12 12 13 13 13 12 12 13 13
16 16 15 15 15 15 15 15 14 14 14 14 14 14 14 14 14 13 13 13 13 13 13 13 13 13 13 13 13 12 12 12 12 12 12 12 12 12 12 12 12 12 12
15 15 15 15 15 15 14 14 14 14 14 14 14 14 14 13 13 13 13 13 13 13 13 13 13 13 13 13 13 12 12 12 12 12 12 12 12 12 12 12 12 12 12
Wind_Speed
2 2 2 1 1 1 1 1 1 1 0 0 1 3 3 4 5 5 5 9 10 10 9 10 10 9 9 9 8 8 8 8 10 11 11 12 12 12 12 12 11 11 11
3 2 2 2 1 1 1 1 1 1 1 1 0 1 3 3 4 5 6 6 8 9 9 10 10 9 9 9 8 8 8 8 9 11 11 12 12 12 12 13 12 11 11
3 2 2 1 0 1 1 2 2 2 1 1 1 0 1 2 3 5 6 6 6 8 9 9 9 9 9 9 9 8 8 8 9 11 11 12 12 12 12 12 12 11 10
3 2 2 1 1 2 2 2 1 2 1 1 0 1 1 1 3 3 4 4 5 5 7 8 10 10 8 8 8 8 7 6 7 9 10 11 11 11 11 11 11 11 10
3 3 2 1 1 2 2 1 2 1 1 0 1 1 1 1 2 3 3 4 5 5 5 6 8 9 8 7 7 7 7 6 6 7 9 10 11 11 11 11 10 10 10
2 3 2 1 2 2 2 1 2 1 1 1 1 1 1 1 1 2 3 3 4 5 5 5 5 5 7 7 7 7 8 7 6 6 7 9 10 11 11 11 11 11 11
2 2 2 1 2 2 1 1 1 1 1 1 2 3 3 2 0 0 1 1 2 4 5 5 5 4 4 6 7 7 8 7 7 7 7 9 10 11 11 12 12 11 12
2 2 2 2 1 1 1 1 1 1 1 1 1 1 3 4 3 1 0 1 1 2 3 5 5 5 4 3 5 7 7 7 7 7 7 7 8 10 10 11 11 12 13
1 1 1 2 1 2 1 1 1 2 0 1 1 2 1 2 2 3 2 1 1 1 2 3 4 5 6 4 4 6 7 6 6 7 8 8 9 10 11 11 11 12 12
1 2 2 2 1 1 1 1 1 1 1 1 1 1 2 3 2 2 3 2 2 2 2 2 3 5 5 5 5 6 7 7 7 7 8 9 10 10 11 11 11 12 12
1 1 1 1 1 1 1 1 0 0 1 1 1 1 0 0 1 2 2 3 3 2 2 3 3 3 5 5 5 6 7 7 8 8 7 8 9 9 10 10 11 11 12
1 2 1 1 0 0 1 1 0 0 0 0 1 1 1 1 1 1 2 2 2 3 2 2 2 3 3 4 6 6 7 8 8 8 8 9 10 10 10 10 11 11 11
1 2 1 1 1 0 0 1 0 1 0 0 1 1 1 2 2 2 2 2 2 2 2 2 2 2 3 3 4 6 8 8 9 9 8 8 9 10 10 9 10 10 10
1 0 0 0 1 1 1 1 0 1 0 1 1 1 1 1 1 1 2 1 1 2 2 3 2 2 2 3 4 6 5 7 9 10 10 9 9 9 10 10 10 10 10
1 0 1 0 1 1 1 1 1 1 1 1 1 1 1 1 0 0 1 2 2 1 3 3 2 2 2 2 4 4 4 6 7 8 9 10 10 9 10 10 10 10 10
1 1 1 1 1 1 1 1 1 1 1 1 1 1 1 1 1 1 0 0 1 3 2 3 3 3 3 2 3 3 4 5 6 7 7 8 8 9 9 10 10 11 11
2 1 1 1 0 0 1 0 0 0 0 1 1 1 2 1 1 1 0 0 0 1 2 3 2 2 2 3 2 2 3 3 4 7 7 7 8 8 9 9 10 10 11
2 2 2 1 1 1 0 1 1 1 0 1 1 2 2 1 1 1 1 1 1 1 2 3 2 2 2 3 2 2 2 3 3 5 7 7 8 8 8 9 9 10 11
2 2 2 1 1 0 1 1 1 1 1 1 1 1 2 1 2 1 1 1 1 1 1 1 2 2 2 2 2 2 3 2 3 4 5 6 7 8 8 8 9 9 10
2 2 1 1 1 1 1 1 0 0 1 1 1 1 2 2 2 2 1 1 1 1 1 1 2 2 2 2 1 2 3 3 3 3 3 4 6 8 9 9 9 9 10
2 2 1 1 1 1 1 1 1 0 0 1 2 2 2 2 2 2 1 1 1 1 1 1 2 2 2 2 2 2 3 3 4 2 2 3 3 3 5 8 9 9 10
1 2 1 1 1 1 0 1 2 0 0 1 2 3 3 3 3 3 2 1 1 2 2 2 2 3 4 3 3 2 2 2 3 2 1 4 2 3 4 4 7 9 9
2 2 1 1 1 2 1 1 2 2 2 2 3 3 3 3 3 3 3 3 3 4 4 4 4 5 5 5 3 3 3 3 4 3 1 3 2 3 4 5 7 8 9
2 2 2 2 2 2 1 1 2 2 2 3 3 3 3 3 3 2 2 2 3 4 5 4 5 6 6 5 4 4 4 3 4 3 1 3 3 3 3 4 7 7 8
2 2 2 2 2 3 3 3 2 1 2 3 3 3 2 3 4 2 1 3 4 6 6 5 5 6 6 6 4 1 1 1 3 3 2 2 3 2 2 3 4 5 6
2 2 2 2 3 3 4 3 3 2 2 3 3 3 3 3 4 3 2 2 4 6 5 5 4 5 4 4 4 4 4 3 2 3 3 2 2 1 2 2 2 2 3
Wind_Direction
87 87 100 118 140 169 158 163 142 130 124 163 171 160 169 176 174 178 190 195 196 199 203 204 206 206 205 206 209 213 217 223 222 212 208 210 213 212 212 211 208 207 208
108 104 94 90 92 144 162 141 128 139 162 116 104 147 169 173 175 179 187 196 203 206 209 209 208 207 206 209 214 218 221 228 225 216 213 212 212 213 214 213 210 210 211
120 111 105 105 74 103 106 93 93 104 95 80 48 289 198 190 172 175 185 195 202 209 213 213 212 212 213 216 218 221 226 234 229 219 214 212 211 212 214 212 211 209 209
129 111 100 100 103 85 85 98 93 84 71 68 313 268 229 200 186 181 177 184 199 212 216 217 216 214 214 219 223 225 227 230 229 221 215 209 208 208 208 205 205 205 208
132 122 110 105 100 78 75 105 83 92 88 29 260 268 265 220 205 195 182 187 196 201 201 210 215 216 218 225 232 234 231 229 230 223 212 204 203 204 204 203 203 204 207
138 129 112 80 81 84 60 59 88 82 153 210 304 350 325 273 193 196 205 200 199 198 195 197 204 213 221 224 231 235 235 232 228 220 212 202 203 205 205 207 208 210 210
154 131 118 89 85 94 91 58 75 52 14 39 46 6 355 0 33 245 207 201 205 200 186 190 191 201 218 227 227 231 236 233 227 221 214 210 209 208 208 212 213 214 216
171 152 134 131 125 109 59 54 79 54 353 59 101 54 357 351 347 325 282 209 225 197 193 197 190 195 202 204 223 228 230 233 230 225 220 216 214 214 214 217 218 219 220
181 157 138 133 136 135 142 166 139 131 248 303 146 140 142 252 306 320 305 285 265 233 230 194 188 193 198 198 215 225 225 225 227 227 228 225 220 217 216 219 222 223 222
131 118 120 121 129 134 165 222 169 165 153 278 307 238 186 179 180 303 318 304 269 240 240 224 207 200 203 203 211 218 221 223 231 234 234 226 221 221 222 223 225 227 226
31 68 119 101 121 155 186 215 127 124 157 193 239 268 286 65 139 168 279 306 314 281 246 236 218 205 208 213 213 220 221 223 228 234 234 222 217 219 224 226 228 228 227
359 348 29 32 83 157 169 193 190 162 194 226 246 200 179 186 220 179 227 270 286 288 282 264 229 218 209 216 222 226 225 223 224 227 229 226 223 224 225 225 225 226 227
358 316 360 15 14 234 124 91 118 286 283 283 258 237 202 212 198 177 186 253 277 290 302 300 257 224 222 215 220 226 228 226 223 222 224 225 225 224 225 225 221 219 221
204 282 31 9 351 4 54 72 94 278 331 285 289 273 262 264 210 172 177 179 312 317 308 283 288 255 250 229 233 230 228 228 227 225 225 226 226 227 229 227 224 221 222
168 125 100 32 349 23 38 59 52 336 352 336 312 316 312 300 335 220 164 158 166 253 280 278 289 297 285 243 248 230 230 239 234 232 231 229 226 227 228 227 226 224 222
164 137 128 72 17 16 27 52 33 347 27 356 13 25 349 326 345 3 84 116 159 183 246 268 259 284 300 298 271 237 237 260 251 244 241 234 229 227 226 225 225 225 226
172 168 167 177 228 32 56 64 325 337 23 348 347 6 337 346 358 331 350 350 178 167 234 282 280 300 313 316 321 287 264 255 256 247 241 238 236 233 232 229 225 225 225
187 181 174 183 203 234 248 212 273 303 293 328 329 341 323 343 352 322 351 314 277 226 200 270 293 316 301 291 300 303 296 272 260 259 248 243 239 237 238 238 231 227 227
195 188 165 170 204 253 277 244 256 311 298 283 302 306 304 321 316 317 326 314 294 311 235 236 277 286 294 311 330 318 310 301 288 279 267 254 246 239 241 242 237 231 230
186 196 175 184 201 232 249 235 176 356 314 299 301 295 293 282 269 269 284 284 291 314 303 282 284 292 287 294 331 312 316 308 298 299 294 275 258 249 247 245 240 236 236
181 165 157 200 251 245 268 200 196 143 333 327 321 315 306 302 279 261 263 261 274 275 289 286 286 300 302 315 289 265 282 293 286 270 284 275 263 255 254 247 242 240 237
167 137 155 185 242 288 274 162 161 166 279 282 298 305 301 297 292 284 284 272 239 241 252 253 267 271 275 267 266 263 271 298 288 271 258 275 258 261 255 248 246 239 234
165 158 183 196 241 278 261 193 177 200 227 250 265 286 301 312 299 283 292 302 295 281 249 225 244 255 255 254 252 264 260 255 255 262 259 276 260 258 258 258 252 243 233
175 181 189 207 231 282 270 214 200 216 234 251 252 253 265 287 302 283 287 309 300 286 270 246 237 249 250 244 227 232 237 262 277 276 211 249 268 260 269 264 254 246 241
192 200 210 225 243 278 274 239 219 219 247 265 265 267 254 266 296 287 279 297 304 301 293 285 276 276 277 271 251 225 268 278 288 280 235 218 254 271 274 276 274 263 253
204 211 237 248 253 276 282 251 228 207 242 273 291 292 278 275 290 287 251 266 289 293 305 315 312 306 295 288 267 212 212 232 256 271 255 207 243 265 296 286 293 289 271
Height
1511 1511 1511 1512 1513 1513 1514 1514 1515 1515 1515 1515 1516 1516 1515 1515 1515 1515 1516 1517 1518 1518 1519 1519 1520 1520 1520 1520 1520 1520 1521 1521 1521 1521 1522 1524 1525 1526 1528 1529 1530 1532 1533
1513 1513 1513 1514 1514 1514 1515 1515 1515 1516 1516 1516 1516 1516 1516 1516 1516 1516 1517 1517 1517 1518 1518 1518 1519 1519 1519 1519 1519 1519 1519 1519 1518 1519 1519 1521 1522 1523 1525 1526 1528 1529 1531
1515 1515 1515 1515 1515 1515 1515 1516 1516 1516 1517 1517 1517 1516 1516 1516 1516 1516 1516 1517 1517 1517 1517 1517 1518 1518 1518 1518 1517 1517 1517 1517 1516 1516 1516 1517 1519 1520 1522 1523 1525 1527 1528
1517 1517 1516 1516 1516 1516 1516 1516 1517 1517 1517 1517 1517 1516 1517 1516 1516 1516 1516 1516 1516 1517 1517 1517 1517 1517 1516 1516 1516 1515 1515 1514 1513 1512 1513 1514 1515 1517 1519 1521 1522 1524 1526
1518 1518 1517 1517 1517 1517 1517 1517 1517 1517 1517 1517 1517 1517 1516 1516 1516 1516 1516 1516 1516 1516 1516 1516 1516 1516 1515 1515 1514 1514 1513 1512 1512 1510 1510 1511 1513 1515 1516 1518 1519 1521 1522
1520 1519 1519 1518 1518 1518 1518 1517 1518 1517 1517 1517 1517 1517 1516 1516 1516 1515 1515 1515 1515 1515 1515 1515 1515 1514 1514 1513 1513 1512 1512 1511 1510 1510 1509 1510 1511 1512 1514 1515 1517 1518 1519
1521 1520 1519 1519 1519 1518 1518 1518 1518 1518 1517 1517 1517 1517 1516 1516 1516 1515 1515 1515 1514 1514 1514 1513 1513 1513 1512 1512 1511 1510 1510 1509 1509 1508 1508 1508 1509 1510 1511 1512 1514 1515 1516
1521 1521 1520 1520 1519 1519 1519 1518 1518 1517 1517 1517 1517 1517 1516 1517 1516 1515 1515 1515 1514 1513 1513 1512 1512 1512 1511 1510 1510 1509 1508 1508 1507 1506 1506 1506 1506 1507 1508 1510 1511 1512 1513
1521 1521 1520 1520 1519 1519 1519 1518 1518 1517 1517 1517 1517 1517 1517 1516 1516 1515 1514 1514 1513 1513 1512 1511 1511 1510 1510 1509 1508 1507 1507 1506 1505 1504 1503 1503 1504 1505 1506 1507 1508 1509 1510
1522 1521 1520 1520 1519 1519 1518 1518 1518 1517 1517 1517 1517 1516 1516 1515 1515 1514 1513 1513 1512 1511 1510 1510 1509 1508 1508 1507 1506 1505 1504 1504 1503 1501 1499 1498 1500 1502 1503 1504 1504 1505 1506
1521 1521 1520 1520 1519 1519 1518 1518 1517 1517 1516 1516 1516 1515 1515 1514 1513 1513 1511 1511 1510 1510 1509 1508 1507 1506 1506 1505 1504 1503 1502 1501 1501 1499 1497 1496 1497 1499 1500 1500 1501 1501 1502
1520 1520 1519 1519 1518 1518 1517 1517 1517 1516 1516 1515 1515 1514 1514 1513 1512 1511 1510 1509 1508 1508 1507 1506 1505 1504 1504 1503 1502 1501 1500 1499 1499 1497 1496 1495 1496 1497 1497 1498 1498 1498 1499
1519 1519 1518 1518 1517 1517 1517 1516 1516 1515 1515 1514 1513 1513 1512 1511 1511 1510 1509 1508 1506 1506 1505 1505 1504 1503 1502 1501 1500 1499 1498 1497 1497 1496 1495 1494 1494 1494 1495 1495 1495 1496 1497
1519 1518 1518 1517 1517 1516 1516 1515 1515 1514 1513 1513 1512 1511 1510 1510 1509 1508 1507 1506 1505 1504 1503 1503 1502 1501 1500 1499 1498 1497 1496 1496 1495 1494 1493 1493 1493 1492 1492 1492 1493 1493 1494
1518 1517 1517 1516 1516 1515 1515 1514 1513 1512 1512 1511 1510 1509 1509 1508 1507 1506 1505 1505 1504 1502 1501 1501 1500 1499 1497 1497 1496 1495 1494 1493 1492 1492 1491 1491 1490 1490 1489 1490 1490 1491 1491
1516 1515 1515 1515 1514 1514 1513 1512 1512 1511 1510 1509 1509 1508 1507 1506 1505 1504 1504 1503 1502 1501 1500 1498 1497 1496 1495 1494 1493 1492 1491 1491 1490 1489 1489 1488 1488 1487 1487 1487 1488 1488 1489
1514 1514 1514 1513 1512 1512 1511 1511 1510 1509 1508 1507 1506 1506 1505 1504 1503 1502 1502 1501 1500 1499 1497 1496 1495 1494 1493 1492 1490 1490 1489 1488 1487 1487 1486 1485 1485 1485 1485 1484 1484 1485 1485
1513 1512 1512 1511 1511 1510 1510 1509 1508 1507 1506 1505 1504 1503 1503 1502 1501 1500 1499 1498 1497 1496 1495 1493 1492 1491 1490 1489 1488 1487 1486 1485 1485 1484 1483 1482 1482 1482 1482 1481 1481 1481 1482
1511 1510 1510 1509 1509 1508 1507 1507 1506 1505 1504 1503 1502 1501 1500 1500 1498 1498 1497 1495 1495 1494 1493 1491 1490 1489 1488 1487 1485 1484 1484 1482 1481 1480 1480 1479 1478 1478 1478 1478 1478 1478 1478
1509 1509 1508 1508 1507 1506 1505 1505 1504 1503 1502 1501 1500 1499 1498 1498 1497 1496 1494 1493 1492 1491 1490 1489 1488 1486 1485 1484 1483 1481 1480 1479 1478 1477 1476 1475 1475 1475 1474 1474 1474 1474 1474
1508 1507 1506 1506 1505 1504 1503 1502 1502 1501 1500 1499 1498 1497 1496 1496 1494 1493 1492 1491 1490 1489 1487 1486 1485 1484 1482 1481 1480 1478 1477 1475 1474 1474 1472 1472 1471 1470 1470 1470 1470 1470 1470
1505 1505 1504 1504 1503 1502 1502 1501 1500 1499 1498 1497 1496 1495 1494 1493 1492 1491 1490 1489 1488 1487 1485 1484 1483 1481 1480 1479 1477 1476 1474 1472 1470 1471 1469 1468 1467 1466 1466 1466 1466 1466 1466
1503 1503 1503 1502 1501 1500 1500 1499 1498 1497 1496 1495 1494 1493 1492 1491 1490 1489 1488 1487 1486 1485 1483 1482 1480 1478 1477 1476 1475 1473 1471 1469 1468 1468 1466 1464 1464 1463 1463 1462 1462 1462 1462
1501 1501 1500 1500 1499 1498 1498 1497 1496 1495 1494 1493 1492 1491 1490 1489 1488 1487 1485 1484 1483 1481 1480 1479 1477 1476 1474 1473 1472 1470 1469 1467 1466 1465 1464 1462 1460 1460 1459 1459 1459 1458 1458
1499 1498 1498 1497 1496 1495 1495 1494 1494 1492 1491 1490 1490 1489 1488 1486 1486 1484 1483 1481 1479 1478 1477 1476 1474 1473 1471 1470 1468 1467 1465 1464 1462 1461 1461 1459 1457 1456 1456 1455 1455 1454 1454
1496 1496 1495 1495 1494 1493 1493 1492 1491 1490 1488 1487 1487 1486 1485 1484 1483 1482 1480 1478 1476 1475 1473 1472 1471 1469 1468 1466 1465 1463 1462 1460 1459 1457 1457 1456 1455 1454 1452 1451 1451 1451 1451